Etusivu
METAR-TAF:

METAR-TAF

Lentoasemat :

Hemphill County Airport

Canadian, Texas, Yhdysvallat

Leveyspiiri: 35-54N, Pituuspiiri: 100-24W, korkeus merenpinnasta: 730 m

Tämänhetkinen sää

Tämä raportti tehtiin 21 minuuttia sitten, kello 04.55 UTC
Tuuli 5 kn lounaasta
Lämpötila 2°C
Kosteus 60%
Ilmanpaine 1025 hPa
Näkyvyys: 16.1 km
selkeää

METAR: KHHF 290455Z AUTO 22005KT 10SM CLR 02/M05 A3027 RMK AO2 T00201049

Aika: 23:16 (05:16 UTC)


TAF: puuttuu

Säähavainnot ja -ennusteet yli 4000 lentoasemalta (METAR- ja TAF-raportit).

Käytössä olevat sääasemat on merkitty karttaan keltaisilla ja punaisilla pisteillä.

Aseta hiiri pisteen päälle nähdäksesi sääaseman nimen.

Klikkaa sitten nähdäksesi säähavainnot ja -ennusteet.

Kartan vaihtaminen: klikkaa mustalla rastilla varustettuja vihreitä pisteitä, niin voit zoomata sisään; viivalla varustettua vihreää pistettä, niin voit zoomata ulos tai vihreitä nuolia, niin pääset viereisille kartoille.


METAR-TAF: